Regional Weather Roundup
Issued by NWS San Diego, CA

Home | Current Version | Previous Version | Text Only | Print | Product List | Glossary On
Versions: 1 2 3 4 5 6 7 8 9 10 11 12 13 14 15 16 17 18 19 20 21 22 23 24 25 26 27 28 29 30 31 32 33 34 35 36 37 38 39 40 41 42 43 44 45 46 47 48 49 50
000
ASUS46 KSGX 192310
RWRSGX

SAN DIEGO HOURLY WEATHER ROUNDUP
NATIONAL WEATHER SERVICE SAN DIEGO CA
400 PM PDT FRI SEP 19 2014

NOTE: "FAIR" INDICATES FEW OR NO CLOUDS BELOW 12,000 FEET WITH NO
SIGNIFICANT WEATHER AND/OR OBSTRUCTIONS TO VISIBILITY.

CAZ042-043-060-061-PZZ750-775-200000-

GREATER SAN DIEGO AREA

CITY           SKY/WX    TMP DP  RH WIND       PRES   REMARKS
LINDBERGH FLD  MOSUNNY   75  61  61 NW12G18   29.85F
POINT LOMA       N/A     76  63  63 NW18        N/A
NATIONAL CITY    N/A     77  65  67 W5        29.84F
CHULA VISTA      N/A     77  67  69 W8        29.77F
IMPERIAL BEACH MOSUNNY   76  63  64 NW14      29.84F
BROWN FIELD    SUNNY     76  62  62 W8        29.84F
MIRAMAR MCAS   MOSUNNY   76  60  57 NW12      29.84F
MONTGOMERY FLD SUNNY     76  61  59 W9        29.84F

$$

NORTH SAN DIEGO COUNTY

CITY           SKY/WX    TMP DP  RH WIND       PRES   REMARKS
CAMP PENDLETON MOSUNNY   77  60  55 W12       29.82F
OCEANSIDE AP   SUNNY     76  61  59 W8        29.83F
OCEANSIDE HBR    N/A     72  64  75 W12       29.86F
VISTA            N/A     76  64  65 W3        29.81F
CARLSBAD       SUNNY     74  61  63 NW8       29.83F
DEL MAR          N/A     77  65  65 CALM      29.86F
LA JOLLA SCRIP   N/A     72  65  78 SW6       29.82S
FALLBROOK        N/A     80  64  57 S6        29.81F
ESCONDIDO        N/A     78  63  60 W8        29.85S
SAN MARCOS       N/A     76  63  63 NW2       29.81F
POWAY            N/A     80  64  58 SW6       29.83F

$$

EAST SAN DIEGO COUNTY

CITY           SKY/WX    TMP DP  RH WIND       PRES   REMARKS
RAMONA         SUNNY     78  60  53 W12       29.86S
SANTEE LAKES     N/A     80  64  57 W6        29.83F
LA MESA          N/A     77  65  65 W10       29.77F
JAMUL            N/A     79  64  60 W12       29.81S
MT. LAGUNA OBS   N/A     72  40  31 W8        29.65F
CAMPO            N/A     83  55  38 SW14G22   29.85S

$$

ORANGE COUNTY AND THE LOS ANGELES BASIN

CITY           SKY/WX    TMP DP  RH WIND       PRES   REMARKS
JOHN WAYNE AP  MOSUNNY   79  60  52 S13       29.84S
LAGUNA BEACH     N/A    N/A  18   0 CALM      29.80F
LAKE FOREST FR   N/A     82  59  45 SW3       29.72F
SANTA ANA        N/A     82  66  57 CALM      29.78F
HUNTINGTON BCH   N/A     78  66  68 SW3       29.86F
LOS ALAMITOS   MOSUNNY   78  62  56 S10       29.83F
FULLERTON      SUNNY     81  59  47 SW9       29.82S
LONG BEACH     SUNNY     77  61  57 S9        29.83F
L.A. AP        MOSUNNY   73  60  63 W13G20    29.85S
L.A. DOWNTOWN  SUNNY     78  61  55 VRB5      29.83F

$$

THE INLAND EMPIRE

CITY           SKY/WX    TMP DP  RH WIND       PRES   REMARKS
CORONA         SUNNY     84  61  45 W12       29.82F
CHINO          MOSUNNY   85  60  42 W14       29.83F
ONTARIO        MOSUNNY   86  57  37 SW15      29.82F
SAN BERNARDINO MOSUNNY   84  50  30 W6        29.83F
RIVERSIDE AP   SUNNY     84  59  42 W9        29.82F
RIV CYN CREST    N/A     83  67  56 S3        29.80F
MORENO VALLEY    N/A     84  61  44 S6        29.01F
MARCH ARB      MOSUNNY   83  58  42 NW8       29.84F
HORSETHIEF CYN   N/A     83  56  39 NW6       29.82F
PERRIS           N/A     85  59  41 W5        29.79F
MENIFEE          N/A     86  59  39 SW3       29.87F
HEMET EAST       N/A     84  55  36 CALM      29.80F
FRENCH VALLEY  FAIR      82  59  44 S7        29.84S
TEMECULA         N/A     82  63  51 SW12      29.78S

$$

SAN BERNARDINO AND RIVERSIDE COUNTY MOUNTAINS

CITY           SKY/WX    TMP DP  RH WIND       PRES   REMARKS
BIG BEAR AP    MOSUNNY   68  39  34 NE8       30.11S
ANGELUS OAKS     N/A     69  54  58 CALM      29.74S
PINE COVE        N/A     67  54  62 W1        29.73F

$$

SOUTHERN DESERT INCLUDING THE COACHELLA VALLEY

CITY           SKY/WX    TMP DP  RH WIND       PRES   REMARKS
PALM SPRINGS   MOSUNNY   98  48  18 VRB5      29.74F
THOUSAND PALMS   N/A     97  53  22 SE3       29.69F HX  95
PALM DESERT      N/A     98  57  25 CALM      26.61R HX  97
THERMAL        SUNNY     99  51  19 SE10      29.67F HX  96
BLYTHE         SUNNY     97  53  22 VRB3      29.72F
IMPERIAL AP    SUNNY     98  53  22 VRB3      29.69F HX  96
EL CENTRO NAS  MOSUNNY   98  53  22 E5        29.69F HX  96
YUMA AZ        MOSUNNY   98  48  18 SW5       29.70F
MEXICALI       SUNNY     99  46  16 CALM      29.71  HX  95

$$

UPPER DESERT

CITY           SKY/WX    TMP DP  RH WIND       PRES   REMARKS
VICTORVILLE AP SUNNY     86  43  22 SW6       29.88F
HESPERIA         N/A     85  52  31 NW3       29.88S
APPLE VALLEY     N/A     85  45  24 S3        29.95S
PALMDALE       SUNNY     86  41  20 NW5       29.87F
LANCASTER      SUNNY     86  38  18 SW8       29.86F
EDWARDS AFB    MOSUNNY   87  41  19 VRB2      29.84F
DAGGETT        SUNNY     91  47  21 NE8       29.82F
29 PALMS N     SUNNY     90  47  22 VRB5      29.88F
NEEDLES        SUNNY    101  42  13 SW10      29.74F HX  96

$$

REGIONAL REPORTS

CITY           SKY/WX    TMP DP  RH WIND       PRES   REMARKS
SANTA BARBARA  SUNNY     75  61  61 W9        29.85F
SANDBERG       SUNNY     78  52  40 S15       29.99F
MT. WILSON       N/A     70  57  64 S3          N/A
LAS VEGAS NV   MOSUNNY   96  35  11 S14G20    29.77F
PHOENIX AZ     MOSUNNY   97  58  27 NW12      29.74F HX  96
TIJUANA          N/A    N/A N/A N/A MISG        N/A

$$

OFFSHORE ISLANDS

CITY           SKY/WX    TMP DP  RH WIND       PRES   REMARKS
CATALINA ARPT  SUNNY     68  57  68 SW14      29.89F
SAN CLEMENTE I PTSUNNY   71  59  65 W16       29.88F
SAN NICOLAS IS PTSUNNY   69  56  62 NW14      29.87F

$$

MARINE AND OFFSHORE BUOY REPORTS

STATION/POSITION SKY/WX   TEMP    WIND        PRES    SWELL
                          AIR SEA DIR/SP/G            HT/PER/DIR
                          (F)     (DEG/KT/KT) (MB)    (FT/S/D)
TANNER BANKS               68 71  290/  8/ 10 1011.9F   7/300/10
S CLEMENTE BASIN           70 75  280/ 14/ 16 1010.7F   5/200/15
SAN NICOLAS IS.               69                N/A     5/170/14
SO. S. ROSA ISLA           67 70  300/ 12/ 14 1011.0F   7/10
W. S. BARBARA CH           64 62  290/  6/  6 1010.8F   5/310/11
S. MONICA BASIN            70 73  230/  8/ 10 1010.6F   3/210/15
S PEDRO CHANNEL               74                N/A     2/240/11
DANA POINT                    72                N/A     2/190/13
CMP PENDLETON NS              72                N/A     3/210/15
OCEANSIDE OFFSHR              74                N/A     2/210/15
TORREY PINES OTR              73                N/A     3/190/14
LA JOLLA 1                 72 73  310/  9/ 10 1010.7S
MISSION BAY BUOY              72                N/A     3/210/14
SAN DIEGO BAY                 76              1011.1F

$$



USA.gov is the U.S. government's official web portal to all federal, state and local government web resources and services.